Voltar ao catálogo

STARLINK-3116

AtivoComunicaçõesVLEO
NORAD 49146·PAYLOAD·🇺🇸 United States

Lançado Sep 14, 2021 de Vandenberg Space Force Base

Loading…

Próximas Passagens (próximas 24 horas)

TLE

AtualizadoSource: CelesTrak SupGP

Época: Sep 14, 2026, 20:43 UTC

1 49146C 21082S   26257.86368056 -.00046854  00000+0 -40091-2 0  2572
2 49146  70.0014 158.8733 0002690 269.8374 225.6684 14.97548691    17

Acompanhe STARLINK-3116 em tempo real com AllMySat

Download on the App Store